• In Czech Republic
  • List of Countries
  • For 7 days
  • Water Temperature
  • Satellite Maps
  • Weather Map
  • Weather Widgets
  • user-avatar
    Login

    Hourly Weather Tibissa

    Today, 23 July, Sunday

    Time Temperature Precipitation Wind Pressure Humidity
    00:00 +35°C° 0.1 mm 4 mps 690 mmHg 24%
    01:00 +34°C° 0.1 mm 4 mps 690 mmHg 26%
    02:00 +33°C° 0 mm 4 mps 690 mmHg 28%
    03:00 +33°C° 0 mm 3 mps 690 mmHg 29%
    04:00 +31°C° 0 mm 2 mps 690 mmHg 30%
    05:00 +33°C° 0 mm 3 mps 690 mmHg 29%
    06:00 +33°C° 0 mm 3 mps 690 mmHg 27%
    07:00 +34°C° 0 mm 3 mps 690 mmHg 25%
    08:00 +36°C° 0 mm 4 mps 690 mmHg 22%
    09:00 +39°C° 0 mm 5 mps 691 mmHg 19%
    10:00 +41°C° 0 mm 6 mps 691 mmHg 16%
    11:00 +41°C° 0 mm 5 mps 691 mmHg 14%
    12:00 +42°C° 0 mm 5 mps 691 mmHg 13%
    13:00 +43°C° 0 mm 5 mps 691 mmHg 12%
    14:00 +43°C° 0 mm 5 mps 691 mmHg 12%
    15:00 +43°C° 0 mm 4 mps 691 mmHg 12%
    16:00 +43°C° 0 mm 4 mps 690 mmHg 12%
    17:00 +41°C° 0 mm 4 mps 690 mmHg 14%
    18:00 +40°C° 0 mm 5 mps 690 mmHg 16%
    19:00 +39°C° 0 mm 6 mps 690 mmHg 18%
    20:00 +37°C° 0.2 mm 5 mps 690 mmHg 19%
    21:00 +36°C° 0.2 mm 4 mps 690 mmHg 21%
    22:00 +35°C° 0.2 mm 3 mps 690 mmHg 23%
    23:00 +35°C° 0 mm 3 mps 690 mmHg 24%

    Tomorrow, 24 July, Monday

    Time Temperature Precipitation Wind Pressure Humidity
    00:00 +34°C° 0 mm 3 mps 690 mmHg 26%
    01:00 +34°C° 0 mm 2 mps 689 mmHg 27%
    02:00 +33°C° 0 mm 3 mps 689 mmHg 30%
    03:00 +31°C° 0 mm 3 mps 689 mmHg 32%
    04:00 +30°C° 0 mm 4 mps 688 mmHg 35%
    05:00 +31°C° 0 mm 3 mps 688 mmHg 33%
    06:00 +31°C° 0 mm 3 mps 688 mmHg 31%
    07:00 +33°C° 0 mm 3 mps 688 mmHg 29%
    08:00 +34°C° 0 mm 4 mps 688 mmHg 26%
    09:00 +36°C° 0 mm 5 mps 689 mmHg 22%
    10:00 +39°C° 0 mm 6 mps 689 mmHg 18%
    11:00 +40°C° 0 mm 6 mps 689 mmHg 17%
    12:00 +41°C° 0 mm 7 mps 689 mmHg 15%
    13:00 +43°C° 0 mm 8 mps 689 mmHg 14%
    14:00 +43°C° 0 mm 8 mps 688 mmHg 14%
    15:00 +41°C° 0 mm 8 mps 687 mmHg 15%
    16:00 +41°C° 0 mm 8 mps 687 mmHg 16%
    17:00 +39°C° 0.1 mm 7 mps 687 mmHg 20%
    18:00 +38°C° 0.1 mm 6 mps 686 mmHg 24%
    19:00 +36°C° 0.1 mm 6 mps 686 mmHg 28%
    20:00 +34°C° 0.2 mm 5 mps 686 mmHg 35%
    21:00 +32°C° 0.2 mm 5 mps 687 mmHg 43%
    22:00 +29°C° 0.2 mm 5 mps 687 mmHg 50%
    23:00 +28°C° 0 mm 4 mps 687 mmHg 52%

    Day after tomorrow, 25 July, Tuesday

    Time Temperature Precipitation Wind Pressure Humidity
    00:00 +27°C° 0 mm 4 mps 686 mmHg 55%
    01:00 +26°C° 0 mm 3 mps 686 mmHg 57%
    02:00 +26°C° 0 mm 3 mps 686 mmHg 59%
    03:00 +25°C° 0 mm 3 mps 685 mmHg 62%
    04:00 +24°C° 0 mm 3 mps 685 mmHg 64%
    05:00 +24°C° 0 mm 3 mps 685 mmHg 64%
    06:00 +24°C° 0 mm 3 mps 685 mmHg 63%
    07:00 +22°C° 0 mm 3 mps 685 mmHg 63%
    08:00 +25°C° 0 mm 4 mps 685 mmHg 54%
    09:00 +26°C° 0 mm 4 mps 686 mmHg 45%
    10:00 +28°C° 0 mm 5 mps 686 mmHg 36%
    11:00 +29°C° 0 mm 5 mps 686 mmHg 33%
    12:00 +32°C° 0 mm 5 mps 686 mmHg 29%
    13:00 +33°C° 0 mm 5 mps 686 mmHg 26%
    14:00 +34°C° 0 mm 5 mps 685 mmHg 25%
    15:00 +34°C° 0 mm 6 mps 685 mmHg 23%
    16:00 +35°C° 0 mm 6 mps 685 mmHg 22%
    17:00 +34°C° 0 mm 6 mps 685 mmHg 26%
    18:00 +33°C° 0 mm 6 mps 685 mmHg 29%
    19:00 +32°C° 0 mm 6 mps 685 mmHg 33%
    20:00 +30°C° 0 mm 5 mps 685 mmHg 39%
    21:00 +28°C° 0 mm 4 mps 685 mmHg 45%
    22:00 +27°C° 0 mm 3 mps 685 mmHg 51%
    23:00 +26°C° 0 mm 2 mps 685 mmHg 53%

    26 July, Wednesday

    Time Temperature Precipitation Wind Pressure Humidity
    00:00 +26°C° 0 mm 2 mps 685 mmHg 56%
    01:00 +25°C° 0 mm 2 mps 685 mmHg 58%
    02:00 +25°C° 0 mm 2 mps 685 mmHg 61%
    03:00 +24°C° 0 mm 2 mps 684 mmHg 63%
    04:00 +24°C° 0 mm 2 mps 684 mmHg 65%
    05:00 +23°C° 0 mm 2 mps 684 mmHg 66%
    06:00 +23°C° 0 mm 2 mps 684 mmHg 67%
    07:00 +23°C° 0 mm 2 mps 684 mmHg 67%
    08:00 +24°C° 0 mm 2 mps 685 mmHg 62%
    09:00 +25°C° 0 mm 1 mps 685 mmHg 57%
    10:00 +26°C° 0 mm 1 mps 686 mmHg 52%
    11:00 +27°C° 0 mm 2 mps 686 mmHg 45%
    12:00 +29°C° 0 mm 3 mps 686 mmHg 39%
    13:00 +32°C° 0 mm 4 mps 686 mmHg 32%
    14:00 +32°C° 0.1 mm 5 mps 685 mmHg 30%
    15:00 +32°C° 0.1 mm 5 mps 685 mmHg 28%
    16:00 +33°C° 0.1 mm 6 mps 685 mmHg 26%
    17:00 +32°C° 0 mm 6 mps 685 mmHg 27%
    18:00 +30°C° 0 mm 5 mps 685 mmHg 29%
    19:00 +30°C° 0 mm 5 mps 685 mmHg 31%
    20:00 +28°C° 0 mm 5 mps 685 mmHg 36%
    21:00 +27°C° 0 mm 4 mps 685 mmHg 42%
    22:00 +25°C° 0 mm 4 mps 685 mmHg 48%
    23:00 +25°C° 0 mm 3 mps 685 mmHg 51%

    27 July, Thursday

    Time Temperature Precipitation Wind Pressure Humidity
    00:00 +24°C° 0 mm 3 mps 685 mmHg 54%
    01:00 +24°C° 0 mm 2 mps 685 mmHg 57%
    02:00 +23°C° 0 mm 2 mps 685 mmHg 60%
    03:00 +23°C° 0 mm 2 mps 685 mmHg 62%
    04:00 +22°C° 0 mm 1 mps 684 mmHg 65%
    05:00 +22°C° 0 mm 1 mps 685 mmHg 64%
    06:00 +22°C° 0 mm 1 mps 685 mmHg 63%
    07:00 +22°C° 0 mm 1 mps 685 mmHg 63%
    08:00 +24°C° 0 mm 2 mps 686 mmHg 52%
    09:00 +25°C° 0 mm 3 mps 686 mmHg 41%
    10:00 +27°C° 0 mm 4 mps 687 mmHg 31%
    11:00 +28°C° 0 mm 5 mps 687 mmHg 26%
    12:00 +30°C° 0 mm 5 mps 687 mmHg 22%
    13:00 +32°C° 0 mm 6 mps 687 mmHg 18%
    14:00 +32°C° 0 mm 6 mps 687 mmHg 18%
    15:00 +33°C° 0 mm 6 mps 687 mmHg 17%
    16:00 +33°C° 0 mm 7 mps 687 mmHg 16%
    17:00 +32°C° 0 mm 7 mps 687 mmHg 19%
    18:00 +30°C° 0 mm 7 mps 687 mmHg 22%
    19:00 +29°C° 0 mm 7 mps 687 mmHg 25%
    20:00 +28°C° 0 mm 6 mps 687 mmHg 29%
    21:00 +27°C° 0 mm 4 mps 687 mmHg 32%
    22:00 +26°C° 0 mm 3 mps 688 mmHg 36%
    23:00 +25°C° 0 mm 3 mps 688 mmHg 38%

    28 July, Friday

    Time Temperature Precipitation Wind Pressure Humidity
    00:00 +25°C° 0 mm 2 mps 687 mmHg 39%
    01:00 +24°C° 0 mm 1 mps 687 mmHg 41%
    02:00 +24°C° 0 mm 1 mps 687 mmHg 42%
    03:00 +24°C° 0 mm 1 mps 687 mmHg 44%
    04:00 +23°C° 0 mm 1 mps 687 mmHg 45%
    05:00 +23°C° 0 mm 1 mps 687 mmHg 44%
    06:00 +24°C° 0 mm 1 mps 687 mmHg 42%
    07:00 +24°C° 0 mm 1 mps 688 mmHg 40%
    08:00 +26°C° 0 mm 1 mps 688 mmHg 36%
    09:00 +27°C° 0 mm 1 mps 689 mmHg 31%
    10:00 +29°C° 0 mm 2 mps 689 mmHg 26%
    11:00 +30°C° 0 mm 2 mps 689 mmHg 24%
    12:00 +31°C° 0 mm 2 mps 689 mmHg 22%
    13:00 +33°C° 0 mm 3 mps 689 mmHg 20%
    14:00 +34°C° 0 mm 3 mps 689 mmHg 19%
    15:00 +35°C° 0 mm 3 mps 689 mmHg 19%
    16:00 +35°C° 0 mm 3 mps 689 mmHg 18%
    17:00 +35°C° 0 mm 4 mps 689 mmHg 19%
    18:00 +34°C° 0 mm 4 mps 689 mmHg 20%
    19:00 +34°C° 0 mm 4 mps 689 mmHg 21%
    20:00 +33°C° 0 mm 4 mps 689 mmHg 25%
    21:00 +32°C° 0 mm 4 mps 690 mmHg 29%
    22:00 +30°C° 0 mm 4 mps 690 mmHg 33%
    23:00 +29°C° 0 mm 3 mps 690 mmHg 36%
    Show more